[[{"header":{"parameterUnit":"m.s-1","parameterCategory":2,"la1":30.2992,"la2":30.254,"lo1":-89.0895,"lo2":-89.0443,"dy":0.0025,"dx":0.0025,"nx":19,"ny":19,"refTime":"2026-05-15T09:00:00:Z","depth":"0","parameterNumber":2,"parameterNumberName":"U-component_of_CURRENTS"},"data":[0,0,0,-0.3536,-0.354,-0.3692,-0.3692,-0.3714,-0.3714,0,0,0,0,0,0,0,0,0,0,0,-0.3458,-0.3459,-0.3536,-0.3541,-0.3692,-0.3692,-0.3714,-0.3714,0,0,0,0,0,0,0,0,0,0,0,-0.3457,-0.3459,-0.346,-0.3541,-0.3692,-0.3692,-0.3714,-0.3635,0,0,0,0,0,0,0,0,0,0,-0.3507,-0.3427,-0.3459,-0.346,-0.3542,-0.3691,-0.3692,-0.3633,-0.364,-0.3606,0,-0.364,0,-0.3699,-0.3714,-0.3714,0,0,0,-0.3511,-0.3421,-0.3516,-0.3461,-0.3544,-0.3691,-0.3615,-0.3638,-0.3646,-0.3614,-0.3641,-0.3644,-0.37,-0.3714,-0.3714,-0.3528,-0.3526,0,0,-0.3502,-0.3429,-0.3511,-0.3521,-0.3595,-0.361,-0.362,-0.3644,-0.3621,-0.3642,-0.3646,-0.37,-0.3714,-0.3714,-0.353,-0.3527,0,0,0,-0.3499,-0.3422,-0.3517,-0.3518,-0.3572,-0.3616,-0.3627,-0.3618,-0.3667,-0.3647,-0.37,-0.3714,-0.3715,-0.3532,-0.3529,-0.3395,0,0,0,-0.3492,-0.3424,-0.3513,-0.3463,-0.3573,-0.3612,-0.3599,-0.3664,-0.367,-0.37,-0.3714,-0.3715,-0.3534,-0.353,-0.3404,-0.3302,0,0,0,-0.3449,-0.3418,-0.3452,-0.346,-0.355,-0.3615,-0.3661,-0.3667,-0.3703,-0.3714,-0.3715,-0.3536,-0.3531,-0.3412,-0.3316,-0.3204,0,0,0,-0.3346,-0.3344,-0.3449,-0.3434,-0.3549,-0.3562,-0.3661,-0.3692,-0.3699,-0.3714,-0.3534,-0.3529,-0.3414,-0.3325,-0.3213,-0.3021,-0.2965,0,0,-0.3284,-0.3333,-0.3324,-0.3424,-0.3385,-0.3538,-0.3432,-0.3529,-0.3595,-0.3515,-0.3513,-0.3401,-0.3317,-0.3206,-0.2735,-0.2688,0,0,0,-0.3264,-0.3233,-0.3242,-0.3249,-0.3323,-0.3302,-0.3403,-0.3407,-0.3383,-0.3585,-0.3337,-0.3286,-0.3222,-0.3122,-0.3083,-0.304,-0.3506,-0.3507,-0.3507,-0.3006,-0.3072,-0.2996,-0.3049,-0.3063,-0.3129,-0.3099,-0.3106,-0.3221,-0.3172,-0.3133,-0.2886,-0.2774,-0.2744,-0.2701,-0.3103,-0.3103,-0.3102,-0.3102,-0.2774,-0.2697,-0.2778,-0.2738,-0.279,-0.2744,-0.277,-0.2845,-0.2753,-0.2891,-0.2839,-0.2928,-0.2694,-0.2663,-0.3092,-0.3094,-0.3095,-0.3096,-0.3097,-0.2488,-0.2472,-0.2496,-0.2459,-0.2442,-0.2528,-0.2465,-0.2529,-0.2588,-0.2544,-0.2481,-0.2483,-0.2497,-0.2557,-0.2556,-0.2555,-0.2554,-0.2553,-0.2553,-0.2194,-0.2226,-0.2176,-0.2171,-0.22,-0.2214,-0.2277,-0.2258,-0.2224,-0.2257,-0.2257,-0.235,-0.272,-0.2789,-0.2537,-0.254,-0.2542,-0.2544,-0.2545,-0.1849,-0.1939,-0.186,-0.1876,-0.1939,-0.1876,-0.1974,-0.1873,-0.1842,-0.1756,-0.1838,-0.2101,-0.212,-0.215,-0.2203,-0.1815,-0.1815,-0.1815,-0.1815,-0.1651,-0.1672,-0.1676,-0.1718,-0.1728,-0.1755,-0.1557,-0.1499,-0.1467,-0.1421,-0.1516,-0.1603,-0.1635,-0.1636,-0.1678,-0.1726,-0.1225,-0.1225,-0.1224,-0.1471,-0.1533,-0.1508,-0.1628,-0.1693,-0.1618,-0.1346,-0.1164,-0.1132,-0.1207,-0.1483,-0.1508,-0.166,-0.1714,-0.175,-0.1812,-0.1907,0,0]},{"header":{"parameterUnit":"m.s-1","parameterCategory":2,"la1":30.2992,"la2":30.254,"lo1":-89.0895,"lo2":-89.0443,"dy":0.0025,"dx":0.0025,"nx":19,"ny":19,"refTime":"2026-05-15T09:00:00:Z","depth":"0","parameterNumber":3,"parameterNumberName":"V-component_of_CURRENTS"},"data":[0,0,0,-0.0177,-0.0172,0.0127,0.0129,0.0541,0.0544,0,0,0,0,0,0,0,0,0,0,0,-0.0296,-0.0295,-0.0178,-0.0172,0.0127,0.0129,0.054,0.0544,0,0,0,0,0,0,0,0,0,0,0,-0.0296,-0.0295,-0.0294,-0.0171,0.0126,0.0129,0.0539,0.0316,0,0,0,0,0,0,0,0,0,0,0.0025,-0.0122,-0.0295,-0.0294,-0.017,0.0126,0.0129,0.0305,0.033,0.0401,0,0.0414,0,0.048,0.0569,0.057,0,0,0,-0.0133,-0.0143,-0.0047,-0.0294,-0.0167,0.0125,0.0003,0.0319,0.0347,0.0434,0.042,0.0436,0.0487,0.0571,0.0573,0.0795,0.0795,0,0,-0.0149,-0.024,-0.0067,-0.0031,-0.0132,-0.0007,0.0012,0.0336,0.0338,0.0422,0.0446,0.0493,0.0573,0.0576,0.0796,0.0795,0,0,0,-0.0223,-0.0253,-0.0164,-0.0049,-0.0001,0.0001,0.0023,0.0324,0.0356,0.0451,0.0498,0.0576,0.058,0.0796,0.0796,0.0651,0,0,0,-0.0231,-0.0297,-0.0173,-0.0223,-0.0009,0.0156,0.0002,0.0334,0.0373,0.0496,0.0576,0.0584,0.0797,0.0796,0.0656,0.0611,0,0,0,-0.0302,-0.0304,-0.028,-0.0229,-0.0113,0.0152,0.0205,0.0344,0.04,0.057,0.0585,0.0797,0.0796,0.066,0.0618,0.0647,0,0,0,-0.0387,-0.0403,-0.0283,-0.0284,-0.0117,0.004,0.0204,0.0346,0.0474,0.0578,0.0796,0.0796,0.0662,0.0622,0.065,0.0676,0.0664,0,0,-0.0457,-0.0414,-0.0411,-0.0297,-0.0213,0.0004,0.0119,0.0353,0.049,0.0701,0.0707,0.0655,0.0619,0.0648,0.0631,0.0621,0,0,0,-0.0465,-0.0453,-0.0413,-0.0331,-0.0182,-0.0016,0.0219,0.0337,0.0527,0.0559,0.068,0.0663,0.0686,0.0708,0.0699,0.0851,0.0792,0.0792,0.0792,-0.0634,-0.0536,-0.0507,-0.036,-0.0258,-0.0006,0.0134,0.0346,0.0469,0.0516,0.0562,0.051,0.0529,0.0524,0.0678,0.0575,0.0574,0.0574,0.0573,-0.0695,-0.065,-0.0541,-0.0476,-0.0306,-0.0181,0.0106,0.0217,0.0413,0.0481,0.051,0.0575,0.0506,0.0675,0.0564,0.0566,0.0567,0.0568,0.0569,-0.0757,-0.0719,-0.0684,-0.0577,-0.0469,-0.0267,-0.0094,0.0084,0.0287,0.0322,0.0426,0.043,0.0572,0.0342,0.0342,0.0342,0.0342,0.0341,0.0341,-0.0822,-0.0776,-0.0758,-0.0663,-0.0606,-0.0467,-0.0209,-0.006,0.0152,0.0301,0.0303,0.0576,0.0443,0.0444,0.034,0.034,0.034,0.034,0.034,-0.0832,-0.085,-0.0812,-0.078,-0.0613,-0.039,-0.0277,0.001,0.0122,0.0233,0.0513,0.0334,0.0408,0.0417,0.042,0.0317,0.0317,0.0317,0.0317,-0.0866,-0.0863,-0.08,-0.0711,-0.0545,-0.0316,0.0015,0.0196,0.0427,0.0545,0.0587,0.0634,0.0628,0.072,0.0722,0.0735,0.0713,0.0714,0.0714,-0.0865,-0.0856,-0.0783,-0.0671,-0.0461,-0.0135,0.0275,0.0559,0.0701,0.0747,0.0792,0.0775,0.086,0.0839,0.0998,0.0988,0.1016,0,0]}],[{"header":{"parameterUnit":"m.s-1","parameterCategory":2,"la1":30.2992,"la2":30.254,"lo1":-89.0895,"lo2":-89.0443,"dy":0.0025,"dx":0.0025,"nx":19,"ny":19,"refTime":"2026-05-15T09:00:00:Z","depth":"2","parameterNumber":2,"parameterNumberName":"U-component_of_CURRENTS"},"data":[0,0,0,-0.2747,-0.275,-0.2915,-0.2916,-0.3201,-0.3204,0,0,0,0,0,0,0,0,0,0,0,-0.2717,-0.2719,-0.2747,-0.2751,-0.2915,-0.2916,-0.32,-0.3204,0,0,0,0,0,0,0,0,0,0,0,-0.2716,-0.2718,-0.272,-0.2751,-0.2915,-0.2916,-0.32,-0.3058,0,0,0,0,0,0,0,0,0,0,-0.289,-0.2802,-0.2718,-0.272,-0.2752,-0.2915,-0.2916,-0.3051,-0.3067,-0.3147,0,-0.3195,0,-0.3197,-0.3224,-0.3225,0,0,0,-0.2755,-0.2787,-0.2877,-0.2721,-0.2754,-0.2914,-0.2842,-0.3059,-0.3078,-0.3169,-0.3198,-0.3208,-0.3201,-0.3226,-0.3228,-0.3218,-0.3216,0,0,-0.2746,-0.2703,-0.2864,-0.2889,-0.2829,-0.2837,-0.2847,-0.307,-0.3079,-0.3199,-0.3214,-0.3206,-0.3228,-0.323,-0.322,-0.3217,0,0,0,-0.2717,-0.2696,-0.2777,-0.2879,-0.2898,-0.2841,-0.2853,-0.3068,-0.311,-0.3217,-0.3209,-0.323,-0.3234,-0.3223,-0.3219,-0.3068,0,0,0,-0.2712,-0.2679,-0.2773,-0.2742,-0.2893,-0.2961,-0.2846,-0.3095,-0.3118,-0.3208,-0.323,-0.3236,-0.3226,-0.3221,-0.3078,-0.2995,0,0,0,-0.2703,-0.2675,-0.2715,-0.2741,-0.2812,-0.2958,-0.3009,-0.3099,-0.3115,-0.3225,-0.3237,-0.3227,-0.3222,-0.3086,-0.3009,-0.2906,0,0,0,-0.2624,-0.2619,-0.2715,-0.2699,-0.2811,-0.2847,-0.3007,-0.3133,-0.3232,-0.3231,-0.3225,-0.322,-0.3089,-0.3019,-0.2915,-0.2753,-0.2698,0,0,-0.2554,-0.2609,-0.2596,-0.2685,-0.2678,-0.2823,-0.2757,-0.3027,-0.3143,-0.3167,-0.3166,-0.3074,-0.301,-0.2908,-0.2425,-0.238,0,0,0,-0.253,-0.2522,-0.254,-0.2566,-0.2645,-0.2655,-0.2847,-0.2888,-0.2967,-0.317,-0.3,-0.2963,-0.2905,-0.2823,-0.2786,-0.3193,-0.3193,-0.3194,-0.3194,-0.2326,-0.2388,-0.2347,-0.2415,-0.2447,-0.2568,-0.2568,-0.2637,-0.2817,-0.2797,-0.2786,-0.2526,-0.2431,-0.2403,-0.2734,-0.2733,-0.2732,-0.2732,-0.2731,-0.2152,-0.2114,-0.2192,-0.2182,-0.2249,-0.224,-0.2293,-0.2408,-0.2356,-0.2518,-0.2471,-0.2598,-0.2353,-0.2718,-0.272,-0.2722,-0.2724,-0.2725,-0.2726,-0.1983,-0.1975,-0.2004,-0.1995,-0.1999,-0.2082,-0.2042,-0.2133,-0.2205,-0.2164,-0.2147,-0.2148,-0.2478,-0.2191,-0.219,-0.2189,-0.2189,-0.2188,-0.2187,-0.18,-0.1828,-0.1796,-0.1807,-0.182,-0.1842,-0.192,-0.1904,-0.1895,-0.1925,-0.1925,-0.2344,-0.2362,-0.2443,-0.2174,-0.2176,-0.2178,-0.2179,-0.218,-0.1583,-0.1646,-0.1584,-0.1587,-0.1601,-0.1526,-0.1649,-0.1576,-0.1557,-0.1483,-0.1772,-0.1787,-0.1824,-0.1853,-0.192,-0.1531,-0.1531,-0.1531,-0.1531,-0.1446,-0.1466,-0.1417,-0.1402,-0.1364,-0.1383,-0.1228,-0.1215,-0.1272,-0.1267,-0.128,-0.1366,-0.1396,-0.142,-0.1459,-0.1524,-0.103,-0.103,-0.1029,-0.13,-0.133,-0.1256,-0.1296,-0.1268,-0.12,-0.1006,-0.0873,-0.0847,-0.1018,-0.1279,-0.148,-0.1647,-0.1679,-0.176,-0.1805,-0.1927,0,0]},{"header":{"parameterUnit":"m.s-1","parameterCategory":2,"la1":30.2992,"la2":30.254,"lo1":-89.0895,"lo2":-89.0443,"dy":0.0025,"dx":0.0025,"nx":19,"ny":19,"refTime":"2026-05-15T09:00:00:Z","depth":"2","parameterNumber":3,"parameterNumberName":"V-component_of_CURRENTS"},"data":[0,0,0,-0.0413,-0.041,-0.0223,-0.0222,0.0306,0.0311,0,0,0,0,0,0,0,0,0,0,0,-0.0475,-0.0474,-0.0413,-0.0409,-0.0223,-0.0222,0.0305,0.0311,0,0,0,0,0,0,0,0,0,0,0,-0.0475,-0.0474,-0.0474,-0.0409,-0.0224,-0.0222,0.0304,0.0099,0,0,0,0,0,0,0,0,0,0,-0.0114,-0.0251,-0.0475,-0.0474,-0.0408,-0.0224,-0.0222,0.0087,0.0113,0.0293,0,0.0296,0,0.0309,0.035,0.0352,0,0,0,-0.0375,-0.0274,-0.0202,-0.0474,-0.0407,-0.0224,-0.0297,0.0099,0.0128,0.0329,0.0303,0.0321,0.0318,0.0353,0.0356,0.0713,0.0713,0,0,-0.0385,-0.044,-0.0224,-0.0186,-0.0383,-0.0304,-0.0292,0.0114,0.013,0.0304,0.0332,0.0327,0.0357,0.0362,0.0714,0.0713,0,0,0,-0.0438,-0.0448,-0.0393,-0.0205,-0.0198,-0.0299,-0.0286,0.0111,0.0134,0.0337,0.0333,0.0361,0.0368,0.0714,0.0714,0.0504,0,0,0,-0.0442,-0.0481,-0.0399,-0.0429,-0.0209,-0.0088,-0.0298,0.0105,0.015,0.033,0.0361,0.0373,0.0715,0.0714,0.0511,0.0484,0,0,0,-0.0479,-0.0485,-0.0469,-0.0433,-0.0367,-0.0096,-0.0051,0.0114,0.015,0.0352,0.0375,0.0715,0.0714,0.0517,0.0493,0.0509,0,0,0,-0.0531,-0.0538,-0.0471,-0.0472,-0.0369,-0.0247,-0.0054,0.011,0.0272,0.0364,0.0715,0.0714,0.0519,0.0498,0.0513,0.0558,0.0543,0,0,-0.057,-0.0544,-0.0543,-0.0479,-0.0418,-0.0268,-0.0179,0.0132,0.0317,0.0611,0.0618,0.0509,0.0493,0.0509,0.0499,0.0486,0,0,0,-0.0575,-0.0566,-0.0538,-0.0489,-0.038,-0.0265,-0.0021,0.0094,0.033,0.0399,0.0547,0.0547,0.0562,0.0599,0.0588,0.0709,0.0709,0.0709,0.0709,-0.0673,-0.0615,-0.0592,-0.0497,-0.042,-0.022,-0.0115,0.0099,0.0273,0.0325,0.04,0.0312,0.0344,0.0338,0.0398,0.0398,0.0397,0.0396,0.0396,-0.0708,-0.0685,-0.0614,-0.0569,-0.0451,-0.0352,-0.013,-0.0023,0.0159,0.0262,0.0286,0.0407,0.0314,0.038,0.0383,0.0385,0.0387,0.0388,0.0389,-0.0753,-0.073,-0.0706,-0.0637,-0.0557,-0.0412,-0.0289,-0.0141,0.0031,0.0048,0.0205,0.021,0.0231,0.0076,0.0076,0.0076,0.0076,0.0075,0.0075,-0.0803,-0.077,-0.0763,-0.0693,-0.066,-0.0562,-0.0359,-0.0248,-0.0066,0.0054,0.0056,0.0209,0.0219,0.022,0.0073,0.0074,0.0074,0.0074,0.0074,-0.0821,-0.0833,-0.0818,-0.0801,-0.0717,-0.068,-0.0471,-0.0231,-0.0102,-0.0008,0.0084,0.0084,0.0194,0.0206,0.0211,0.0072,0.0072,0.0072,0.0072,-0.0856,-0.0853,-0.0859,-0.0845,-0.0799,-0.0721,-0.0564,-0.028,-0.0024,0.0064,0.0064,0.0087,0.0088,0.0196,0.0208,0.0216,0.0078,0.0077,0.0077,-0.0865,-0.087,-0.0887,-0.0879,-0.0847,-0.0783,-0.0686,-0.0383,-0.0068,0.0075,0.0036,0.0078,0.0114,0.0114,0.0292,0.0306,0.0323,0,0]}],[{"header":{"parameterUnit":"m.s-1","parameterCategory":2,"la1":30.2992,"la2":30.254,"lo1":-89.0895,"lo2":-89.0443,"dy":0.0025,"dx":0.0025,"nx":19,"ny":19,"refTime":"2026-05-15T09:00:00:Z","depth":"4","parameterNumber":2,"parameterNumberName":"U-component_of_CURRENTS"},"data":[0,0,0,-0.1323,-0.1325,-0.1413,-0.1413,-0.1341,-0.134,0,0,0,0,0,0,0,0,0,0,0,-0.1306,-0.1307,-0.1323,-0.1325,-0.1413,-0.1413,-0.1341,-0.134,0,0,0,0,0,0,0,0,0,0,0,-0.1305,-0.1307,-0.1308,-0.1325,-0.1413,-0.1413,-0.1341,-0.1321,0,0,0,0,0,0,0,0,0,0,-0.1259,-0.1279,-0.1306,-0.1308,-0.1326,-0.1413,-0.1413,-0.1322,-0.1322,-0.1247,0,-0.1279,0,-0.1296,-0.133,-0.133,0,0,0,-0.1327,-0.128,-0.129,-0.1308,-0.1326,-0.1412,-0.1374,-0.1324,-0.1324,-0.1246,-0.1278,-0.1276,-0.1294,-0.1329,-0.1329,-0.1232,-0.1232,0,0,-0.1322,-0.1325,-0.1291,-0.1291,-0.1367,-0.1371,-0.1376,-0.1326,-0.1335,-0.1278,-0.1275,-0.1293,-0.1329,-0.1328,-0.1232,-0.1232,0,0,0,-0.1306,-0.1322,-0.1338,-0.1293,-0.1317,-0.1373,-0.138,-0.1339,-0.1342,-0.1275,-0.1292,-0.1328,-0.1326,-0.1232,-0.1232,-0.1278,0,0,0,-0.1304,-0.1312,-0.1336,-0.1339,-0.132,-0.1356,-0.1393,-0.1346,-0.1341,-0.1293,-0.1328,-0.1325,-0.1232,-0.1232,-0.1277,-0.1276,0,0,0,-0.1299,-0.1312,-0.1326,-0.1339,-0.1374,-0.1358,-0.136,-0.1347,-0.1349,-0.133,-0.1324,-0.1232,-0.1232,-0.1276,-0.1274,-0.1266,0,0,0,-0.1292,-0.1301,-0.1327,-0.1345,-0.1374,-0.1368,-0.1362,-0.1345,-0.1327,-0.1327,-0.1232,-0.1232,-0.1275,-0.1274,-0.1266,-0.1084,0,0,0,-0.1286,-0.1301,-0.1308,-0.1332,-0.1323,-0.1355,-0.1354,-0.1326,-0.1301,-0.1235,-0.1235,-0.1277,-0.1274,-0.1266,-0.1082,0,0,0,0,-0.1293,-0.1295,-0.1296,-0.1314,-0.1319,-0.134,-0.1334,-0.1318,-0.1299,-0.1293,-0.1263,-0.1259,-0.1253,-0.1145,-0.1232,-0.1232,-0.1232,-0.1232,-0.1232,-0.1268,-0.128,-0.128,-0.1298,-0.13,-0.1314,-0.132,-0.1302,-0.1282,-0.1283,-0.1287,-0.1296,-0.1184,-0.1286,-0.1286,-0.1287,-0.1287,-0.1287,-0.1287,-0.1251,-0.1246,-0.1274,-0.1284,-0.1306,-0.1314,-0.1304,-0.1315,-0.1306,-0.13,-0.1293,-0.1189,-0.1291,-0.129,-0.129,-0.1289,-0.1289,-0.1289,-0.1288,-0.1237,-0.1225,-0.1273,-0.1291,-0.1307,-0.1326,-0.1296,-0.1331,-0.1325,-0.1333,-0.12,-0.1308,-0.1314,-0.1337,-0.1337,-0.1337,-0.1337,-0.1337,-0.1337,-0.1194,-0.1223,-0.1232,-0.1275,-0.1278,-0.1293,-0.1308,-0.1283,-0.1304,-0.1207,-0.1342,-0.1312,-0.131,-0.1314,-0.1337,-0.1337,-0.1337,-0.1337,-0.1337,-0.1103,-0.1149,-0.1136,-0.1152,-0.1151,-0.1153,-0.1226,-0.1153,-0.1116,-0.1059,-0.1127,-0.1137,-0.1094,-0.1097,-0.1093,-0.105,-0.1048,-0.1046,0,-0.1027,-0.1052,-0.099,-0.0954,-0.0921,-0.1016,-0.0918,-0.0929,-0.0952,-0.0916,-0.1099,-0.1177,-0.1183,-0.1136,-0.1135,-0.1129,0,0,0,-0.0932,-0.0933,-0.0834,-0.0822,-0.0774,-0.0783,-0.0871,-0.0815,-0.0985,-0.0896,-0.0988,-0.1003,-0.1205,-0.1335,-0.1293,-0.1291,-0.1295,0,0]},{"header":{"parameterUnit":"m.s-1","parameterCategory":2,"la1":30.2992,"la2":30.254,"lo1":-89.0895,"lo2":-89.0443,"dy":0.0025,"dx":0.0025,"nx":19,"ny":19,"refTime":"2026-05-15T09:00:00:Z","depth":"4","parameterNumber":3,"parameterNumberName":"V-component_of_CURRENTS"},"data":[0,0,0,-0.0487,-0.0488,-0.0558,-0.0558,-0.0713,-0.0714,0,0,0,0,0,0,0,0,0,0,0,-0.0468,-0.0468,-0.0487,-0.0489,-0.0558,-0.0558,-0.0712,-0.0714,0,0,0,0,0,0,0,0,0,0,0,-0.0467,-0.0468,-0.0469,-0.0489,-0.0558,-0.0558,-0.0712,-0.0644,0,0,0,0,0,0,0,0,0,0,-0.0569,-0.0547,-0.0468,-0.0469,-0.0489,-0.0558,-0.0558,-0.064,-0.0649,-0.0699,0,-0.0712,0,-0.0716,-0.0726,-0.0726,0,0,0,-0.0492,-0.054,-0.0552,-0.0469,-0.049,-0.0557,-0.0527,-0.0644,-0.0654,-0.071,-0.0714,-0.0719,-0.0719,-0.0727,-0.0728,-0.0839,-0.0838,0,0,-0.0488,-0.049,-0.0545,-0.0557,-0.0513,-0.0525,-0.053,-0.0649,-0.0668,-0.0714,-0.0722,-0.0721,-0.0728,-0.0729,-0.0839,-0.0839,0,0,0,-0.0475,-0.0488,-0.0495,-0.0551,-0.0559,-0.0527,-0.0532,-0.0662,-0.0663,-0.0724,-0.0723,-0.0729,-0.0731,-0.0839,-0.0839,-0.0714,0,0,0,-0.0473,-0.0479,-0.0493,-0.0496,-0.0556,-0.0604,-0.0543,-0.0654,-0.0667,-0.0722,-0.0729,-0.0733,-0.0839,-0.0839,-0.0717,-0.0712,0,0,0,-0.0463,-0.0479,-0.0485,-0.0496,-0.0523,-0.0602,-0.0609,-0.0657,-0.0668,-0.0727,-0.0733,-0.0839,-0.0839,-0.072,-0.0716,-0.0673,0,0,0,-0.0464,-0.0478,-0.0486,-0.05,-0.0522,-0.0545,-0.0608,-0.0664,-0.0713,-0.073,-0.0839,-0.0839,-0.0721,-0.0719,-0.0676,-0.0702,0,0,0,-0.0475,-0.048,-0.0483,-0.0491,-0.0503,-0.0535,-0.0543,-0.065,-0.0725,-0.0805,-0.0808,-0.0716,-0.0717,-0.0674,-0.0692,0,0,0,0,-0.0481,-0.0491,-0.0493,-0.0507,-0.0518,-0.0526,-0.0598,-0.0625,-0.0693,-0.0752,-0.0748,-0.0754,-0.0729,-0.0755,-0.0838,-0.0838,-0.0838,-0.0838,-0.0838,-0.0521,-0.0508,-0.0518,-0.0507,-0.0515,-0.0535,-0.0539,-0.0596,-0.0656,-0.0667,-0.0672,-0.0592,-0.0615,-0.0673,-0.0672,-0.0672,-0.0671,-0.0671,-0.0671,-0.0542,-0.0545,-0.0532,-0.0535,-0.0522,-0.053,-0.052,-0.0535,-0.0533,-0.0598,-0.0578,-0.0648,-0.0659,-0.0661,-0.0663,-0.0664,-0.0665,-0.0666,-0.0667,-0.0575,-0.0569,-0.0572,-0.0568,-0.056,-0.0538,-0.051,-0.0486,-0.0481,-0.0442,-0.0495,-0.0534,-0.0521,-0.0424,-0.0424,-0.0424,-0.0424,-0.0423,-0.0423,-0.0602,-0.0598,-0.0616,-0.0602,-0.0605,-0.0576,-0.051,-0.0469,-0.0424,-0.0408,-0.0427,-0.0511,-0.0519,-0.0511,-0.042,-0.042,-0.0421,-0.0421,-0.0421,-0.0622,-0.0639,-0.0659,-0.0671,-0.0667,-0.0635,-0.0552,-0.0431,-0.0378,-0.033,-0.0383,-0.0386,-0.0447,-0.0457,-0.0449,-0.0336,-0.0336,-0.0336,0,-0.0648,-0.0653,-0.0711,-0.0747,-0.0747,-0.0684,-0.0581,-0.0493,-0.0414,-0.0436,-0.042,-0.049,-0.0489,-0.0572,-0.058,-0.0578,0,0,0,-0.0661,-0.0678,-0.074,-0.0793,-0.0804,-0.067,-0.056,-0.0521,-0.0421,-0.0327,-0.0336,-0.0336,-0.0394,-0.0408,-0.0511,-0.0521,-0.0514,0,0]}]]